KLM211 OMAA-EHAM

Flight info

Callsign KLM211
Flight time N/A
Altitude 34000
Route DAXIB Q563 UKUVO G462 TUMAK L602 RALKA/N0491F360 L602 TASMI/N0455F220 L602 ALPET/N0489F360 L718 DEBNI DCT SEVKU L718 KABAN UL718 ULSAB UG8 GEM UT32 BUK UL602 MAKOL DCT EKNAB/N0479F380 DCT GILEP DCT BEGLA DCT FMD DCT DITIS DCT LOMKI DCT VARIK DCT KATCE DCT EXOBA DCT NORKU
Aircraft B77W/H-SDE1E2E3FGHIJ2J3J4J5M1RWXY/LB1D1

Departure

Time 2026-05-07 08:07
Airport Zayed International Airport (OMAA)

Arrival

Time N/A
Airport Amsterdam Airport Schiphol (EHAM)
Time Latitude Longitude Altitude Speed Heading
2026-05-07 07:48 24.43327 54.64032 93 ft 0 kts 217°
2026-05-07 07:51 24.43327 54.64033 93 ft 0 kts 217°
2026-05-07 07:51 24.43332 54.64037 95 ft 3 kts 217°
2026-05-07 07:51 24.43347 54.64049 93 ft 3 kts 217°
2026-05-07 07:52 24.43361 54.64064 94 ft 3 kts 246°
2026-05-07 07:52 24.43366 54.64084 94 ft 3 kts 257°
2026-05-07 07:52 24.43370 54.64105 94 ft 3 kts 276°
2026-05-07 07:52 24.43366 54.64127 93 ft 3 kts 282°
2026-05-07 07:53 24.43359 54.64146 96 ft 3 kts 307°
2026-05-07 07:53 24.43352 54.64157 96 ft 0 kts 307°
2026-05-07 07:57 24.43355 54.64153 95 ft 4 kts 307°
2026-05-07 07:57 24.43361 54.64144 93 ft 0 kts 307°
2026-05-07 07:57 24.43363 54.64141 96 ft 1 kts 307°
2026-05-07 07:57 24.43368 54.64134 96 ft 1 kts 307°
2026-05-07 07:58 24.43377 54.64121 97 ft 4 kts 307°
2026-05-07 07:58 24.43421 54.64079 94 ft 13 kts 338°
2026-05-07 07:58 24.43528 54.64054 95 ft 17 kts 323°
2026-05-07 07:58 24.43615 54.63945 95 ft 21 kts 320°
2026-05-07 07:59 24.43747 54.63983 96 ft 22 kts 30°
2026-05-07 07:59 24.43834 54.63967 95 ft 12 kts 317°
2026-05-07 07:59 24.43885 54.63897 95 ft 12 kts 308°
2026-05-07 07:59 24.43936 54.63826 96 ft 12 kts 308°
2026-05-07 08:00 24.43986 54.63755 96 ft 12 kts 308°
2026-05-07 08:00 24.44037 54.63684 96 ft 12 kts 308°
2026-05-07 08:00 24.44088 54.63614 95 ft 12 kts 309°
2026-05-07 08:00 24.44122 54.63567 96 ft 12 kts 309°
2026-05-07 08:01 24.44174 54.63497 96 ft 12 kts 309°
2026-05-07 08:01 24.44242 54.63404 96 ft 12 kts 309°
2026-05-07 08:01 24.44293 54.63335 94 ft 12 kts 322°
2026-05-07 08:01 24.44348 54.63357 95 ft 0 kts 51°
2026-05-07 08:05 24.44350 54.63361 95 ft 5 kts 51°
2026-05-07 08:05 24.44391 54.63426 95 ft 11 kts 67°
2026-05-07 08:06 24.44396 54.63510 96 ft 11 kts 96°
2026-05-07 08:06 24.44383 54.63594 96 ft 11 kts 109°
2026-05-07 08:06 24.44323 54.63698 95 ft 29 kts 128°
2026-05-07 08:06 24.44066 54.64056 98 ft 102 kts 128°
2026-05-07 08:07 24.43437 54.64932 99 ft 188 kts 129°
2026-05-07 08:07 24.42487 54.66237 374 ft 233 kts 131°
2026-05-07 08:07 24.41552 54.67645 1575 ft 225 kts 128°
2026-05-07 08:07 24.40603 54.69026 2086 ft 235 kts 135°
2026-05-07 08:08 24.39405 54.70255 2654 ft 237 kts 142°
2026-05-07 08:08 24.38109 54.71455 3120 ft 249 kts 144°
2026-05-07 08:08 24.36921 54.72839 3686 ft 252 kts 129°
2026-05-07 08:08 24.35892 54.74439 4264 ft 259 kts 127°
2026-05-07 08:09 24.34863 54.76081 4902 ft 264 kts 126°
2026-05-07 08:09 24.33816 54.77733 5591 ft 263 kts 126°
2026-05-07 08:09 24.32690 54.79337 6084 ft 269 kts 128°
2026-05-07 08:09 24.31580 54.80984 6577 ft 267 kts 125°
2026-05-07 08:10 24.30501 54.82629 6780 ft 265 kts 125°
2026-05-07 08:10 24.29411 54.84278 6761 ft 268 kts 125°
2026-05-07 08:10 24.28326 54.85911 6764 ft 269 kts 125°
2026-05-07 08:10 24.27209 54.87591 6768 ft 269 kts 125°
2026-05-07 08:11 24.26111 54.89242 6760 ft 267 kts 125°
2026-05-07 08:11 24.24999 54.90868 6771 ft 266 kts 127°
2026-05-07 08:11 24.23859 54.92457 6872 ft 275 kts 127°
2026-05-07 08:11 24.22655 54.94129 7328 ft 282 kts 127°
2026-05-07 08:12 24.21434 54.95829 8011 ft 286 kts 127°
2026-05-07 08:12 24.20263 54.97587 8697 ft 285 kts 118°
2026-05-07 08:12 24.19355 54.99527 9405 ft 286 kts 114°
2026-05-07 08:12 24.18538 55.01521 10098 ft 288 kts 112°
2026-05-07 08:13 24.17707 55.03586 10409 ft 307 kts 113°
2026-05-07 08:13 24.16806 55.05795 10593 ft 329 kts 113°
2026-05-07 08:13 24.15829 55.08149 10758 ft 351 kts 114°
2026-05-07 08:13 24.14780 55.10642 11068 ft 367 kts 114°
2026-05-07 08:14 24.13704 55.13175 11688 ft 374 kts 114°
2026-05-07 08:14 24.12597 55.15768 12368 ft 379 kts 114°
2026-05-07 08:14 24.11473 55.18396 13144 ft 382 kts 114°